[[{"header":{"parameterUnit":"m.s-1","parameterCategory":1,"la1":30.2991,"la2":30.254,"lo1":-89.0895,"lo2":-89.0444,"dy":0.0017,"dx":0.0017,"nx":28,"ny":28,"refTime":"2024-05-29T03:00:00:Z","depth":0,"parameterNumber":2,"parameterNumberName":"U-component_of_WINDS"},"data":[0,0,0,0,0,0,0,0,0,0,0,0,0,0,0,0,0,0,0,0,0,0,0,0,0,0,0,0,0,0,0,0,0,0,0,0,0,0,0,0,0,0,0,0,0,0,0,0,0,0,0,0,0,0,0,0,0,0,-0.9461,-0.9461,0,-0.9466,-0.9466,-0.9466,-0.9455,-0.9455,-0.9455,-0.9454,-0.9459,-0.946,-0.946,0,0,0,0,0,0,0,0,0,0,0,0,0,-0.9442,-0.9442,-0.9461,-0.9461,-0.9461,-0.9466,-0.9466,-0.9466,-0.9455,-0.9455,-0.9455,-0.9454,-0.9459,-0.946,-0.946,0,0,0,0,0,0,0,0,0,0,0,0,0,-0.9449,-0.9442,-0.9461,-0.9456,-0.9456,-0.9466,-0.9466,-0.9466,-0.9456,-0.9455,-0.9454,-0.9454,-0.9459,-0.946,-0.946,-0.9475,0,0,-0.9462,-0.9463,0,0,0,0,0,0,0,0,-0.9448,-0.945,-0.9457,-0.9457,-0.9456,-0.946,-0.9461,-0.9469,-0.9456,-0.9456,-0.9454,-0.9454,-0.946,-0.946,-0.9462,-0.9475,-0.9475,-0.9463,-0.9463,-0.9463,-0.9463,0,0,0,0,0,0,0,-0.9448,-0.9449,-0.9463,-0.9457,-0.9457,-0.9454,-0.9454,-0.9463,-0.9461,-0.9456,-0.9455,-0.9456,-0.946,-0.9462,-0.9463,-0.9476,-0.9463,-0.9463,-0.9464,-0.9464,-0.95,-0.95,0,0,0,0,0,0,-0.9448,-0.9449,-0.9463,-0.9463,-0.9451,-0.9455,-0.9455,-0.9459,-0.9461,-0.946,-0.9456,-0.9455,-0.9461,-0.9462,-0.9463,-0.9479,-0.9463,-0.9464,-0.9464,-0.9499,-0.95,-0.95,0,0,0,0,0,0,-0.9448,-0.9449,-0.9463,-0.9456,-0.9457,-0.9456,-0.946,-0.9459,-0.9462,-0.9461,-0.946,-0.9459,-0.9461,-0.9462,-0.9472,-0.9479,-0.9464,-0.9465,-0.9498,-0.9499,-0.95,-0.9513,0,0,0,0,0,0,-0.9447,-0.9449,-0.9455,-0.9456,-0.9458,-0.9472,-0.946,-0.946,-0.9463,-0.9462,-0.9463,-0.9463,-0.946,-0.9471,-0.9473,-0.948,-0.9465,-0.9498,-0.9499,-0.95,-0.9512,-0.9514,-0.9516,0,0,0,0,0,-0.9447,-0.9459,-0.9455,-0.9457,-0.9465,-0.9472,-0.9473,-0.947,-0.9464,-0.9469,-0.9468,-0.9463,-0.9478,-0.9472,-0.9474,-0.9482,-0.9497,-0.9499,-0.95,-0.9511,-0.9514,-0.9516,0,0,0,0,0,0,-0.9459,-0.9459,-0.9455,-0.9468,-0.947,-0.9471,-0.9477,-0.9473,-0.9477,-0.9476,-0.9471,-0.9472,-0.9483,-0.9483,-0.9476,-0.9495,-0.9487,-0.9488,-0.9495,-0.9497,-0.9499,-0.9499,-0.9466,0,0,0,0,0,-0.9463,-0.9469,-0.9469,-0.948,-0.9481,-0.9479,-0.9483,-0.948,-0.9482,-0.9483,-0.9483,-0.9485,-0.949,-0.9494,-0.9499,-0.9512,-0.9512,-0.9518,-0.952,-0.9522,-0.9523,-0.953,-0.9532,-0.9504,-0.9504,-0.9504,0,0,-0.9472,-0.9473,-0.9477,-0.9483,-0.9484,-0.949,-0.948,-0.9488,-0.9492,-0.9484,-0.9493,-0.9493,-0.9495,-0.9507,-0.9512,-0.9508,-0.9531,-0.9524,-0.9525,-0.9525,-0.9531,-0.9534,-0.9536,-0.9505,-0.9505,-0.9505,0,0,-0.9491,-0.9492,-0.9502,-0.9503,-0.9505,-0.9504,-0.9506,-0.9507,-0.9506,-0.9516,-0.9509,-0.9515,-0.9524,-0.9526,-0.9528,-0.9547,-0.9541,-0.9548,-0.9559,-0.9565,-0.9568,-0.957,-0.9576,-0.9578,-0.955,-0.955,-0.955,0,-0.9502,-0.9511,-0.9507,-0.9514,-0.9517,-0.951,-0.9519,-0.952,-0.9524,-0.9526,-0.9521,-0.9532,-0.9533,-0.9544,-0.9549,-0.9551,-0.9553,-0.9548,-0.9568,-0.957,-0.9571,-0.9577,-0.958,-0.9551,-0.955,-0.955,-0.955,0,-0.9524,-0.953,-0.9537,-0.9541,-0.9544,-0.9552,-0.9549,-0.9553,-0.955,-0.9549,-0.9558,-0.9559,-0.9563,-0.9566,-0.9563,-0.9577,-0.9574,-0.9568,-0.956,-0.9575,-0.958,-0.9582,-0.9552,-0.9551,-0.9551,-0.9551,0,0,-0.9551,-0.9552,-0.9554,-0.9555,-0.9557,-0.9562,-0.9569,-0.9574,-0.9577,-0.958,-0.9586,-0.9593,-0.9588,-0.959,-0.9587,-0.9593,-0.9607,-0.9587,-0.9587,-0.959,-0.9622,-0.9626,-0.9628,-0.9604,-0.9604,-0.9605,-0.9621,0,-0.957,-0.9583,-0.9579,-0.9592,-0.9598,-0.959,-0.9597,-0.9599,-0.9597,-0.9602,-0.9601,-0.9606,-0.9599,-0.96,-0.9605,-0.9604,-0.9613,-0.9603,-0.9609,-0.9609,-0.9608,-0.9631,-0.9636,-0.9651,-0.9624,-0.9624,-0.9624,0,-0.9593,-0.9596,-0.961,-0.961,-0.9612,-0.9618,-0.9621,-0.9626,-0.9627,-0.9626,-0.9628,-0.9624,-0.9631,-0.9622,-0.9631,-0.9625,-0.9627,-0.9627,-0.9627,-0.9627,-0.9617,-0.9632,-0.9656,-0.9659,-0.9628,-0.9627,-0.9627,0,-0.9611,-0.9619,-0.9628,-0.9629,-0.9629,-0.9633,-0.9634,-0.9634,-0.9637,-0.964,-0.9641,-0.9645,-0.9647,-0.965,-0.9646,-0.964,-0.9656,-0.9647,-0.9655,-0.9655,-0.9659,-0.9658,-0.9684,-0.9661,-0.9661,-0.9661,-0.9661,0,-0.9632,-0.9641,-0.9636,-0.9641,-0.965,-0.9646,-0.9655,-0.9654,-0.9655,-0.966,-0.9654,-0.9659,-0.9654,-0.9658,-0.9656,-0.9664,-0.9665,-0.9664,-0.9663,-0.9664,-0.9664,-0.9665,-0.9664,-0.9661,-0.9661,-0.9661,-0.9661,0,-0.9654,-0.9651,-0.966,-0.9659,-0.9659,-0.9666,-0.9665,-0.967,-0.9668,-0.9674,-0.9676,-0.9673,-0.9678,-0.9674,-0.9679,-0.9677,-0.9688,-0.9685,-0.9687,-0.9686,-0.9694,-0.9693,-0.9721,-0.9724,-0.9699,-0.97,-0.97,0,-0.9668,-0.9674,-0.9674,-0.9676,-0.9677,-0.9681,-0.9684,-0.9679,-0.9682,-0.9683,-0.9688,-0.9692,-0.9695,-0.9703,-0.9701,-0.9704,-0.9702,-0.9711,-0.9703,-0.9703,-0.9702,-0.9701,-0.9701,-0.9713,-0.9713,-0.9714,-0.9714,0,-0.9692,-0.969,-0.9694,-0.9696,-0.9699,-0.9701,-0.9703,-0.9706,-0.9701,-0.9704,-0.9709,-0.9711,-0.9716,-0.9719,-0.9722,-0.9722,-0.9717,-0.9717,-0.9719,-0.972,-0.972,-0.972,-0.9692,-0.9716,-0.9716,-0.9716,-0.9716,-0.9716,-0.971,-0.9715,-0.9715,-0.9719,-0.9719,-0.9721,-0.9725,-0.9724,-0.9727,-0.973,-0.9727,-0.9733,-0.9733,-0.9736,-0.9737,-0.974,-0.9737,-0.9739,-0.974,-0.9741,-0.9742,-0.972,-0.9741,-0.9741,-0.9741,-0.9741,-0.9741,0,-0.9733,-0.9733,-0.9737,-0.9739,-0.9742,-0.9736,-0.9738,-0.9741,-0.9745,-0.9746,-0.9749,-0.9753,-0.9757,-0.9755,-0.9758,-0.9762,-0.9759,-0.9763,-0.9762,-0.9762,-0.9745,-0.9743,-0.9764,-0.9764,-0.9764,-0.9764,-0.9764,-0.9764,-0.9746,-0.9754,-0.9752,-0.9759,-0.9759,-0.9764,-0.9765,-0.9766,-0.9766,-0.9772,-0.9775,-0.9773,-0.9773,-0.9776,-0.9778,-0.9778,-0.9779,-0.9783,-0.9782,-0.9766,-0.9763,-0.9761,-0.9759,-0.9783,-0.9783,-0.9798,-0.9798,-0.9798]},{"header":{"parameterUnit":"m.s-1","parameterCategory":1,"la1":30.2991,"la2":30.254,"lo1":-89.0895,"lo2":-89.0444,"dy":0.0017,"dx":0.0017,"nx":28,"ny":28,"refTime":"2024-05-29T03:00:00:Z","depth":0,"parameterNumber":3,"parameterNumberName":"V-component_of_WINDS"},"data":[0,0,0,0,0,0,0,0,0,0,0,0,0,0,0,0,0,0,0,0,0,0,0,0,0,0,0,0,0,0,0,0,0,0,0,0,0,0,0,0,0,0,0,0,0,0,0,0,0,0,0,0,0,0,0,0,0,0,2.8977,2.8977,0,2.8931,2.893,2.8929,2.8844,2.8843,2.8841,2.8839,2.8793,2.8793,2.8793,0,0,0,0,0,0,0,0,0,0,0,0,0,2.8994,2.8994,2.8977,2.8977,2.8976,2.8931,2.893,2.8929,2.8845,2.8843,2.8841,2.8839,2.8793,2.8793,2.8794,0,0,0,0,0,0,0,0,0,0,0,0,0,2.8971,2.8994,2.8977,2.8928,2.8923,2.8931,2.893,2.8929,2.8845,2.8843,2.884,2.8838,2.8793,2.8793,2.8794,2.8845,0,0,2.8795,2.8795,0,0,0,0,0,0,0,0,2.8973,2.8971,2.8936,2.8932,2.8926,2.8891,2.8919,2.8901,2.8846,2.8875,2.8839,2.8837,2.8828,2.8825,2.8822,2.8843,2.8841,2.8795,2.8795,2.8795,2.8795,0,0,0,0,0,0,0,2.8974,2.8972,2.8959,2.8936,2.893,2.8909,2.8903,2.8915,2.8866,2.8872,2.8866,2.8861,2.8824,2.8821,2.882,2.884,2.8795,2.8795,2.8796,2.8796,2.8901,2.8903,0,0,0,0,0,0,2.8983,2.8974,2.896,2.8957,2.8944,2.8911,2.8904,2.8905,2.8865,2.8857,2.8864,2.8858,2.8822,2.8819,2.8818,2.8875,2.8795,2.8796,2.8796,2.8898,2.8901,2.8904,0,0,0,0,0,0,2.8984,2.8982,2.8962,2.8964,2.896,2.8913,2.8914,2.8905,2.8902,2.8859,2.885,2.8869,2.882,2.8817,2.8839,2.8872,2.8796,2.8796,2.8895,2.8899,2.8903,2.899,0,0,0,0,0,0,2.8984,2.8983,2.9002,2.8965,2.896,2.8984,2.8916,2.8906,2.8903,2.8894,2.8862,2.8854,2.8818,2.8839,2.8839,2.8871,2.8797,2.8892,2.8897,2.8902,2.8984,2.8996,2.9007,0,0,0,0,0,2.8985,2.9029,2.9004,2.9002,2.8983,2.8986,2.8983,2.894,2.8906,2.8924,2.8897,2.8855,2.8869,2.8842,2.8841,2.8874,2.889,2.8896,2.8901,2.8979,2.8994,2.9006,0,0,0,0,0,0,2.9072,2.9023,2.8995,2.9028,2.9011,2.8972,2.8994,2.8958,2.8951,2.8944,2.8891,2.8884,2.8913,2.8895,2.8866,2.8922,2.8873,2.8879,2.8931,2.8945,2.8957,2.896,2.8797,0,0,0,0,0,2.9095,2.9101,2.9059,2.9092,2.9085,2.9041,2.9041,2.9009,2.899,2.8983,2.8957,2.8941,2.8941,2.8942,2.8941,2.8981,2.8972,2.9004,2.9015,2.9025,2.903,2.9049,2.9062,2.8923,2.8923,2.8923,0,0,2.9142,2.9117,2.9124,2.9109,2.9092,2.91,2.9036,2.9047,2.9052,2.8985,2.9003,2.8984,2.8962,2.8993,2.9005,2.898,2.9067,2.9032,2.904,2.904,2.9056,2.907,2.9082,2.8927,2.8926,2.8925,0,0,2.9232,2.9214,2.9239,2.9224,2.92,2.917,2.9177,2.9142,2.9126,2.9143,2.9093,2.9099,2.9101,2.9087,2.908,2.9165,2.9126,2.9166,2.9226,2.9245,2.9256,2.9265,2.9294,2.9306,2.9172,2.9172,2.9172,0,2.9294,2.9303,2.9257,2.927,2.9265,2.9204,2.9229,2.9217,2.9194,2.9192,2.9163,2.9164,2.9145,2.9172,2.9192,2.9189,2.9194,2.9169,2.9258,2.9267,2.9275,2.9302,2.9314,2.9177,2.9176,2.9176,2.9175,0,2.938,2.9388,2.9411,2.9389,2.9387,2.9406,2.9362,2.9365,2.9334,2.9308,2.9326,2.9301,2.9293,2.9297,2.9267,2.9319,2.9303,2.9268,2.9217,2.9294,2.9319,2.9329,2.9184,2.9182,2.9181,2.918,0,0,2.9523,2.9475,2.9484,2.9473,2.9442,2.9447,2.9464,2.9455,2.9458,2.9445,2.9457,2.946,2.9426,2.9419,2.9387,2.9404,2.9471,2.9365,2.9364,2.9385,2.9526,2.9552,2.9565,2.9446,2.9447,2.9449,2.9527,0,2.9605,2.963,2.9589,2.9624,2.9629,2.9572,2.9586,2.9569,2.9545,2.9547,2.952,2.9522,2.9478,2.9473,2.9488,2.946,2.9498,2.9454,2.9456,2.9457,2.9462,2.9578,2.9606,2.9681,2.9537,2.9538,2.9539,0,2.9704,2.9695,2.9731,2.9697,2.9698,2.9711,2.9699,2.9702,2.9681,2.9662,2.9654,2.9615,2.9629,2.9582,2.96,2.957,2.9569,2.9555,2.9557,2.9555,2.9502,2.9578,2.9704,2.9715,2.9554,2.9553,2.9552,0,2.9803,2.98,2.982,2.9813,2.9774,2.9785,2.977,2.9746,2.9744,2.9734,2.9731,2.9723,2.9719,2.9713,2.9674,2.9643,2.9696,2.9645,2.968,2.9681,2.9693,2.9693,2.982,2.9695,2.9695,2.9694,2.9694,0,2.9899,2.9923,2.9864,2.9876,2.9901,2.9853,2.9879,2.9858,2.9838,2.9845,2.9795,2.9803,2.9751,2.9753,2.9722,2.9741,2.974,2.9725,2.9716,2.9729,2.9731,2.9726,2.972,2.9697,2.9697,2.9696,2.9696,0,3.0013,2.9975,2.9993,2.9955,2.9946,2.9966,2.9933,2.9943,2.9916,2.9926,2.9925,2.9883,2.9883,2.9843,2.9835,2.9814,2.9846,2.9828,2.9853,2.9846,2.9883,2.988,3.0011,3.0026,2.9893,2.9894,2.9895,0,3.0076,3.0093,3.0057,3.0058,3.0044,3.0047,3.0044,2.9998,2.9996,2.9973,2.9986,2.9982,2.9976,2.9979,2.9947,2.994,2.9921,2.9968,2.992,2.9932,2.9921,2.992,2.9921,2.9978,2.9979,2.9981,2.9982,0,3.0192,3.0172,3.0168,3.0159,3.0156,3.0147,3.0134,3.0138,3.0087,3.0088,3.0087,3.0082,3.0074,3.007,3.0057,3.0041,3.0003,2.9997,3.0005,3.0017,3.003,3.0022,2.9879,2.9994,2.9993,2.9992,2.9991,2.9991,3.0281,3.0293,3.0269,3.0267,3.0253,3.0242,3.0249,3.0222,3.0221,3.021,3.0183,3.0186,3.0164,3.0143,3.0131,3.0132,3.0109,3.012,3.0123,3.0126,3.0133,3.0031,3.013,3.013,3.0129,3.0129,3.0129,0,3.0393,3.0374,3.0373,3.0357,3.0355,3.0319,3.0303,3.0304,3.0308,3.0291,3.0286,3.0285,3.0281,3.0248,3.0241,3.0248,3.023,3.0248,3.0246,3.0243,3.0155,3.0148,3.0262,3.0262,3.0262,3.0262,3.0262,3.0262,3.0451,3.0468,3.0446,3.0456,3.0437,3.044,3.0434,3.0423,3.0409,3.041,3.0406,3.0385,3.0362,3.0352,3.0347,3.0337,3.0336,3.0359,3.0344,3.0262,3.0249,3.0237,3.023,3.036,3.036,3.0431,3.0432,3.0433]}]]